Find OneWeb SL0673

NORAD ID: 55832 Int'l Des: 2023-029 Owner: ONEWEBN Country: UK Constellation: oneweb operational
LEOCIRCULARPOLARONEWEB_TYPE

当前视图

正在加载3D地球...

About OneWeb SL0673

OneWeb SL0673 (NORAD 55832) is a oneweb constellation satellite launched Mar 9, 2023 by ONEWEBN of UK. It operates in LEO, CIRCULAR, POLAR, ONEWEB_TYPE orbit with a mass of 148.00 kg.

关于 OneWeb SL0673

正在加载描述...

即将过境

Passes for default location (London). Set your location on the main map for personalized predictions.

高度历史

Loading altitude history...

两行轨道根数

1 55832U 23029AN 26178.35167068 .00000016 00000-0 73278-5 0 9998
2 55832 87.9184 302.9430 0001767 100.4215 259.7116 13.19724396160246
Epoch: Jun 27, 2026 • Age: 10 hours

当前状态

高度 1188.7 km
速度 7.26 km/s
星下点 -1.37°S, 69.77°W
发射日期 Mar 9, 2023
运行时间 3.3 years
类型 internet

技术详情

分类 Payload
质量 148.00 kg
干质量 140.00 kg
总质量 148.00 kg
长度 1.30 m
直径 1.00 m
跨度 5.00 m
形状 Trapezoid+2 pan
制造商 ONEWUS
平台类型 ARROW
阶段状态 In Orbit
所有者/国家 ONEWEBN/UK

Most Searched